Regional Weather Roundup
Issued by NWS

Home | Current Version | Previous Version | Text Only | Print | Product List | Glossary Off
Versions: 1 2 3 4 5 6 7 8 9 10 11 12 13 14 15 16 17 18 19 20 21 22 23 24 25 26 27 28 29 30 31 32 33 34 35 36 37 38 39 40 41 42 43 44 45 46 47 48 49 50

000
ASUS43 KBIS 040802
RWRND

NORTH DAKOTA REGIONAL WEATHER ROUNDUP
NATIONAL WEATHER SERVICE BISMARCK ND
300 AM CDT FRI SEP 04 2015

NOTE: "FAIR" INDICATES FEW OR NO CLOUDS BELOW 12,000 FEET WITH NO
SIGNIFICANT WEATHER AND/OR OBSTRUCTIONS TO VISIBILITY.


NDZ001>003-009>011-017-040900-
NORTHWEST NORTH DAKOTA

CITY           SKY/WX    TMP DP  RH WIND       PRES   REMARKS
WILLISTON      MOCLDY    66  42  41 N21G28    29.82S
MINOT          PTCLDY    66  61  84 W8        29.72F
$$

NDZ018>021-031>035-040>046-040900-
SOUTHWEST NORTH DAKOTA

CITY           SKY/WX    TMP DP  RH WIND       PRES   REMARKS
BISMARCK         N/A     76  70  82 E10       29.71S
DICKINSON      CLOUDY    68  65  90 NW12      29.73R
GARRISON         N/A     69  66  90 NE5       29.72F
HETTINGER ARPT CLOUDY    73  56  54 SE9       29.72S
$$

NDZ004>008-012>016-024-026-027-054-040900-
NORTHEAST NORTH DAKOTA

CITY           SKY/WX    TMP DP  RH WIND       PRES   REMARKS
GRAND FORKS    PTCLDY    74  72  93 SE8       29.77S
GRND FRKS AFB  MOCLDY    75  73  94 S10       29.77F
DEVILS LAKE    PTCLDY    75  68  78 S9        29.74R
$$

NDZ022-023-025-028>030-036>039-047>053-040900-
SOUTHEAST NORTH DAKOTA

CITY           SKY/WX    TMP DP  RH WIND       PRES   REMARKS
FARGO          PTCLDY    77  72  84 SE14      29.77F
JAMESTOWN      PTCLDY    74  71  91 SE10      29.74F
$$




USA.gov is the U.S. government's official web portal to all federal, state and local government web resources and services.